Погода в Ижме

Погода в Ижме : погода сейчас, прогноз погоды и архив. Всё, что Вы хотите узнать о погоде в Ижме!

Поиск расширенной информации на нашем сайте:

Другие новости

Новости СМИ2

Главная страница сайта

Новости сайта

03.07.2017

Напоминаем, что на нашем специализированном сайте Метеоцентр.Азия вы можете получить высокодетализированные автоматические прогнозы погоды по пунктам России, СНГ и мира в авиационном формате (включающие направление и скорость ветра, видимость, явления погоды, количество и форму облачности, нижнюю и верхнюю границу облачности).


Погода в Ижме - сегодня

Время (UTC), дата Ветер
(°,м/с) 
Видим.   Явления Облачность Т
(°С)
Тd
(°С)
f(%) Тe
(°С)
Pmin
(гПа)
dP
(гПа)
Po
(мм)
O2
(г/м3)
Тmin Tmax R s Состояние
почвы
15 15.10.17 060 (СВ) 20000 м    10/10 270 м 
[St]
+0.2 -0.9 92 -1  1013.1  0.5  756  305    +3.7       
18 15.10.17 060 (СВ) 20000 м    10/10 150 м 
[St]
+0.4 -0.6 93 1013.3  0.2  756  304           
21 15.10.17 070 (В) 20000 м    10/10 180 м 
[St]
+0.6 -0.4 93 1013.4  0.1  756  304           
00 16.10.17 080 (В) 20000 м    10/10 150 м 
[St]
+1.5 -0.1 89 +1  1013.2  -0.2  756  303           
03 16.10.17 080 (В) 20000 м    10/0 средняя 
[Ac und]
+1.4 -0.1 90 +2  1013.7  0.5  757  303  +0.2         
06 16.10.17 130 (ЮВ) 20000 м    10/0 средняя 
[Ac und]
+3.1 +0.8 85 +3  1013.6  -0.1  756  301           
09 16.10.17 130 (ЮВ) 20000 м    8/0 верхняя 
[Cc]
+5.7 +2 77 +5  1013.2  -0.4  756  298           
12 16.10.17 160 (Ю) 20000 м    10/0 средняя 
[Ac As]
+5.8 +2.2 78 +5  1012.5  -0.7  756  298           
15 16.10.17 160 (Ю) 20000 м    10/0 средняя 
[As op]
+5.6 +2.3 79 +5  1011.9  -0.6  755  298    +7.3       
18 16.10.17 170 (Ю) 20000 м    10/0 средняя 
[Ac As]
+5.4 +2.4 81 +4  1010.4  -1.5  754  298           
21 16.10.17 170 (Ю) 20000 м    10/10 420 м 
[Sc]
+5.2 +2.6 83 +4  1008.2  -2.1  752  297           
00 17.10.17 170 (Ю) 20000 м    10/10 240 м 
[Frnb]
+4.9 +3.5 91 +4  1005.9  -2.3  751  297           
03 17.10.17 160 (Ю) 20000 м  слаб. дождь  10/10 210 м 
[Frnb]
+4.5 +3.8 95 +4  1002.9  -3  749  296  +4.5    0.5     
06 17.10.17 160 (Ю) 20000 м  слаб. дождь  10/10 210 м 
[Frnb]
+4.8 +4 95 +4  999.9  -3  746  295           
09 17.10.17 170 (Ю) 20000 м  {дождь}  10/10 240 м 
[Frnb]
+6.2 +4.8 91 +6  997.5  -2.4  744  293           
12 17.10.17 140 (ЮВ) 20000 м  {дождь}  10/10 450 м 
[Sc]
+7 +4.5 84 +6  995  -2.4  743  291           
15 17.10.17 140 (ЮВ) 20000 м    10/5 600 м средняя 
[Sc|Ac und]
+6.5 +4.4 86 +5  993.3  -1.8  741  291    +7.1  0.3     
18 17.10.17 230 (ЮЗ) 20000 м  слаб. дождь  10/10 360 м 
[Sc]
+4.8 +3.3 90 +4  991.6  -1.7  740  292           
21 17.10.17 170 (Ю) 20000 м  слаб. дождь  10/10 500 м 
[Sc]
+3.6 +3 96 +3  990.3  -1.3  739  293           
00 18.10.17 190 (Ю) 20000 м  {дождь}  10/10 240 м 
[Frnb]
+3 +2.5 97 +2  990  -0.3  739  294           
03 18.10.17 170 (Ю) 20000 м  слаб. дождь  10/8 210 м средняя 
[Frnb|As op]
+2   989.1  -0.8  738    +2.9       
06 18.10.17 170 (Ю) 20000 м  слаб. дождь  10/8 240 м средняя 
[Frnb|As op]
+2.9 +2.2 95 +2  988.3  -0.8  738  294           
09 18.10.17 220 (ЮЗ) 20000 м  слаб. дождь  10/6 200 м средняя 
[Frnb|As op]
+3.8 +2.9 94 +3  987.4  -0.9  737  292           
12 18.10.17 210 (ЮЗ) 20000 м  в посл. час дождь  10/5 300 м средняя 
[Sc|Ac und]
+3.1 +2.2 94 +2  987.7  0.3  737  293           
15 18.10.17 210 (ЮЗ) 20000 м  {дождь}  8/3 300 м средняя, верхняя 
[Sc|Ac trans|Ci fib]
+1 +0.5 96 988.1  0.3  737  296    +3.9     
Время (UTC), дата Ветер
(°,м/с) 
Видим.   Явления Облачность Т
(°С)
Тd
(°С)
f(%) Тe
(°С)
Pmin
(гПа)
dP
(гПа)
Po
(мм)
O2
(г/м3)
Тmin Tmax R s Состояние
почвы

Для получения пояснительной информации подведите курсор к названию столбца.

ПОГОДА в Ижме - архив

Всё, что Вы хотите узнать о погоде в Ижме - удобно и подробно!

Выберите нужную дату (начиная с 1 января 2015* года) и нажмите кнопку "Найти".
Будут отображены архивные сводки погоды по пункту Ижма, начиная с указанной даты.


Отображать данные в формате CSV (для использования в таблицах Excel)


Внимание! Наш архив погоды предназначен исключительно для личного некоммерческого использования в познавательных целях. Если Вам необходимы официальные справки о состоянии погоды (для производственных, юридических, коммерческих и т.п. целей), обращайтесь в органы Росгидромета.

*Примечание: данная дата относится к архиву по метеостанциям СССР (Россия, СНГ, Балтия).
Архив по метеостанциям Зарубежной Европы и Азии (кроме Китая) хранится 10 дней, по другим регионам земного шара (Китай, Африка, Америка, Австралия, Океания) - 1 день.

Ижма - район местоположения метеостанции


Название, широта, долгота, высота метеостанции:
Ижма 65°ш. 53.9°д. 38 м над ур. моря [Российская Федерация]

Дополнительная информация

В oтличие oт бoльшинства пoгoдных сайтoв мы публикуем пoдрoбную метеoинфoрмацию в детальнoм прoфессиoнальнoм фoрмате.

Характеристики температуры и влажнoсти вoздуха измеряются на высoте 2 м в тени вдали oт зданий и деревьев.
Скoрoсть ветра измеряется на высoте 10 м (на урoвне рoста челoвека скoрoсть ветра ниже в 1.5-2 раза). Если метеoстанция нахoдится в гoрoде или в лесу, тo скoрoсть ветра занижена на 2-4 м/с пo сравнению с oткрытым местoм. Скoрoсть ветра над акватoриями крупных рек и oзёр, а также на вершинах хoлмoв на 2-5 м/с выше, чем в oбычных услoвиях.
Атмoсфернoе давление в разных тoчках местнoсти мoжет значительнo oтличаться oт давления на метеoстанции, в зависимoсти oт услoвий рельефа (при пoдъёме на 10 м давление пoнижается примернo на 1 мм рт.ст.).